Vorticity
16 13 6 15 2 1 -0 -10 13 -1 8 -10 6 7 -1 11 2 13 8 11 10 8 6 7 4 5 6 5 3 2 4 4 3 4 3 5 5 -7
13 9 9 6 12 1 6 15 2 20 7 -5 14 10 -7 2 0 -0 28 6 8 6 6 6 9 2 3 4 5 4 4 4 4 3 4 7 6 6
15 13 6 6 9 8 11 7 12 12 6 2 17 13 10 17 10 -2 7 13 -10 17 4 1 0 7 7 6 10 3 7 6 3 2 4 2 -4 -0
14 19 13 11 9 9 7 13 -0 4 11 6 8 38 1 30 -6 5 5 -1 3 18 8 2 51 11 2 7 2 4 9 -0 8 4 2 1 -6 3
16 17 12 13 9 11 11 15 8 12 0 21 -5 5 14 18 22 6 -3 15 12 21 11 14 10 -8 66 4 4 0 -0 20 2 -2 3 2 20 -3
13 15 12 8 17 15 15 20 17 10 5 -0 3 6 5 15 12 2 12 8 10 3 10 4 21 24 -14 56 -5 7 4 2 -3 2 4 13 11 4
14 14 16 15 16 14 9 12 13 14 17 17 6 12 6 12 17 17 2 4 -8 2 -10 10 4 19 5 27 38 -4 5 10 4 18 2 -16 -5 14
13 12 11 12 11 9 8 9 6 12 9 7 15 13 9 11 15 16 24 27 -4 3 13 3 17 8 22 -4 29 48 -2 -5 14 14 4 15 27 8
10 7 5 13 8 8 5 6 7 10 7 12 3 12 10 25 17 16 13 21 5 2 7 3 -8 -4 5 31 12 37 43 9 -10 -4 23 4 4 19
16 4 11 16 10 10 16 14 13 15 3 15 -2 7 8 20 0 0 -13 3 -7 2 9 9 31 1 11 5 -0 -9 26 23 26 18 15 22 11 20
5 15 6 6 -2 -2 5 7 10 1 -3 15 11 29 8 19 -2 -9 23 16 16 12 18 9 -1 13 10 14 10 9 9 9 6 15 24 15 11 3
-6 0 20 33 10 21 15 14 11 12 23 14 16 18 -4 12 16 -9 22 2 11 5 7 10 -5 -5 -1 -1 -0 0 7 6 -2 9 2 1 28 -11
2 3 15 24 24 1 10 12 18 12 14 9 14 2 2 2 1 -2 -3 7 14 2 11 2 0 4 5 10 2 16 8 8 8 10 13 1 -4 4
10 10 17 8 2 7 12 7 -1 9 9 -6 10 5 -0 7 5 2 5 -0 2 2 3 7 11 8 6 7 9 7 -2 0 15 16 20 14 7 17
0 -0 -2 -2 1 -1 1 4 1 -1 3 8 1 4 3 3 2 -1 1 4 5 3 8 12 17 19 19 27 30 34 30 15 29 35 -11 19 25 -3
-3 -3 -4 -5 3 1 6 5 3 7 8 12 20 27 30 26 21 18 17 20 23 26 26 20 12 7 6 5 8 13 16 24 29 24 17 55 16 30
14 14 15 16 17 18 21 21 20 19 17 15 12 12 15 17 18 18 15 13 16 19 17 19 20 21 20 15 12 4 19 23 24 15 20 29 40 -22
17 16 15 15 14 13 13 13 12 12 13 13 11 12 17 17 11 10 11 12 14 20 21 17 17 22 26 27 23 23 15 20 20 25 37 22 16 31
10 12 11 11 11 11 12 12 12 12 11 12 17 17 7 9 9 12 14 19 15 14 12 13 17 16 17 23 42 27 32 2 24 29 17 37 40 16
10 10 10 11 12 12 11 11 11 11 11 14 11 7 8 10 11 12 15 15 15 16 8 11 15 17 20 -10 16 18 18 19 24 40 44 15 21 16
11 12 12 12 12 11 11 10 10 7 11 13 11 9 8 10 9 11 14 19 16 16 19 10 14 10 2 11 7 20 21 31 31 29 9 19 26 24
13 13 13 13 12 11 9 13 10 7 9 12 11 9 9 9 8 12 15 15 16 19 12 19 13 5 7 11 14 14 22 31 28 4 17 21 27 35
12 12 12 13 15 15 11 15 8 7 12 13 10 8 8 8 7 11 16 16 17 19 21 21 14 15 15 18 20 25 28 31 20 3 16 21 23 32
Height
3039 3044 3049 3054 3059 3064 3069 3070 3072 3073 3074 3079 3082 3088 3090 3092 3094 3093 3093 3097 3100 3101 3102 3103 3103 3104 3105 3107 3107 3107 3107 3107 3106 3104 3103 3102 3099 3097
3027 3032 3038 3043 3047 3053 3057 3061 3064 3064 3063 3068 3072 3076 3080 3080 3082 3082 3082 3087 3089 3090 3091 3092 3094 3094 3095 3096 3096 3098 3098 3097 3097 3096 3094 3094 3092 3090
3017 3022 3028 3033 3037 3041 3046 3050 3053 3055 3053 3058 3060 3064 3066 3066 3070 3071 3073 3074 3076 3077 3077 3080 3082 3084 3083 3085 3085 3086 3087 3087 3087 3087 3085 3084 3084 3083
3008 3013 3018 3023 3027 3030 3035 3039 3042 3046 3047 3048 3051 3050 3053 3055 3058 3060 3061 3063 3063 3065 3064 3066 3067 3071 3071 3074 3074 3074 3076 3076 3076 3076 3075 3075 3076 3075
3001 3005 3010 3014 3018 3021 3025 3029 3033 3036 3038 3038 3039 3040 3042 3044 3047 3048 3050 3051 3051 3053 3054 3054 3056 3058 3057 3059 3060 3061 3063 3063 3065 3065 3065 3065 3066 3065
2994 2997 3002 3007 3011 3015 3018 3020 3023 3025 3028 3029 3030 3031 3032 3035 3036 3038 3037 3039 3041 3041 3043 3043 3043 3044 3046 3045 3045 3047 3049 3049 3050 3053 3053 3053 3053 3054
2986 2990 2995 3000 3003 3006 3008 3010 3013 3015 3017 3019 3019 3020 3020 3021 3025 3028 3026 3029 3029 3029 3031 3031 3031 3029 3030 3031 3031 3035 3035 3036 3036 3039 3040 3041 3040 3041
2979 2982 2985 2989 2993 2996 2999 3002 3004 3005 3007 3009 3011 3009 3011 3010 3013 3014 3014 3015 3013 3018 3019 3016 3016 3015 3016 3017 3018 3019 3022 3022 3022 3024 3026 3027 3027 3026
2971 2974 2977 2979 2983 2986 2989 2993 2995 2998 2999 3000 3000 3000 3000 3001 3000 2999 3002 3003 3004 3007 3004 3000 3003 3002 3006 3004 3006 3005 3005 3007 3009 3009 3010 3011 3011 3013
2964 2968 2970 2973 2976 2980 2983 2985 2988 2990 2987 2989 2991 2991 2991 2991 2991 2992 2991 2991 2991 2992 2992 2986 2989 2988 2991 2991 2992 2992 2992 2992 2992 2994 2994 2995 2996 2998
2956 2960 2963 2966 2970 2973 2975 2976 2975 2977 2978 2981 2982 2980 2981 2982 2982 2983 2982 2981 2979 2979 2981 2976 2977 2975 2974 2975 2977 2978 2978 2978 2978 2978 2978 2979 2980 2983
2951 2952 2956 2957 2960 2964 2965 2966 2968 2969 2967 2970 2971 2970 2972 2973 2974 2974 2973 2972 2970 2968 2966 2967 2964 2962 2958 2957 2959 2960 2961 2961 2962 2962 2962 2963 2964 2965
2943 2945 2948 2950 2952 2955 2957 2958 2960 2962 2962 2964 2964 2964 2965 2965 2964 2963 2962 2961 2960 2958 2954 2953 2950 2948 2945 2938 2937 2939 2939 2940 2940 2941 2940 2942 2944 2948
2941 2942 2944 2947 2950 2951 2953 2954 2956 2957 2957 2957 2958 2959 2959 2957 2955 2954 2952 2949 2946 2944 2942 2937 2931 2929 2925 2921 2917 2919 2919 2918 2916 2916 2917 2918 2919 2924
2941 2943 2944 2945 2946 2946 2947 2948 2948 2949 2950 2950 2950 2949 2948 2947 2945 2944 2941 2937 2933 2929 2924 2920 2916 2911 2905 2898 2893 2892 2889 2890 2890 2891 2893 2894 2897 2898
2939 2939 2939 2940 2940 2940 2940 2940 2940 2940 2940 2939 2938 2936 2934 2932 2930 2927 2925 2922 2919 2917 2912 2907 2901 2893 2887 2881 2873 2868 2866 2860 2863 2862 2865 2867 2875 2875
2932 2932 2932 2932 2932 2932 2932 2931 2931 2930 2929 2927 2926 2925 2923 2921 2919 2916 2912 2908 2904 2901 2898 2895 2888 2881 2874 2866 2856 2852 2847 2842 2842 2842 2842 2842 2848 2856
2926 2926 2926 2926 2926 2925 2924 2923 2923 2922 2922 2921 2919 2916 2913 2910 2908 2906 2900 2895 2890 2886 2881 2875 2870 2863 2857 2852 2844 2836 2830 2826 2824 2820 2821 2822 2825 2833
2922 2922 2921 2921 2921 2920 2919 2918 2917 2916 2914 2912 2910 2907 2906 2904 2900 2895 2889 2883 2878 2871 2866 2859 2851 2844 2837 2832 2832 2822 2815 2812 2807 2804 2804 2806 2808 2816
2917 2917 2916 2915 2915 2914 2913 2911 2910 2909 2907 2906 2904 2902 2898 2894 2890 2884 2877 2871 2864 2858 2854 2848 2841 2833 2826 2820 2813 2811 2805 2797 2794 2791 2790 2793 2796 2801
2912 2911 2910 2909 2909 2908 2906 2905 2904 2905 2904 2900 2897 2895 2890 2886 2881 2873 2865 2858 2850 2845 2841 2837 2833 2826 2821 2814 2807 2801 2796 2790 2788 2785 2784 2785 2787 2793
2907 2905 2904 2903 2901 2900 2900 2901 2900 2898 2896 2894 2891 2888 2883 2877 2870 2864 2857 2849 2843 2836 2832 2829 2825 2820 2815 2808 2801 2794 2789 2784 2784 2781 2781 2783 2786 2790
2902 2901 2899 2899 2898 2897 2895 2894 2893 2892 2891 2888 2884 2880 2875 2871 2865 2859 2851 2842 2836 2830 2825 2821 2818 2814 2807 2801 2795 2790 2787 2785 2783 2781 2783 2786 2788 2793